Alturas, CA

12:50 PM PST on December 05, 2019 (GMT -0800)
Alturas Municipal

Weather History for KAAT - October, 2019

Change the Weather History Date:

Wednesday, October 16, 2019

  Actual Average Record
Temperature  
Mean Temperature 46 °F 47 °F  
Max Temperature 71 °F 65 °F 90 °F (1961)
Min Temperature 22 °F 28 °F 14 °F (1996)
Degree Days  
Heating Degree Days 18 18  
Month to date heating degree days 330 253  
Since 1 July heating degree days 636 630  
Cooling Degree Days 0 0  
Month to date cooling degree days 0 0  
Year to date cooling degree days 217 156  
Moisture  
Dew Point 23 °F    
Average Humidity 45    
Maximum Humidity 81    
Minimum Humidity 17    
Precipitation  
Precipitation 0.00 in 0.04 in 0.66 in (1947)
Month to date precipitation 0.03 0.39  
Year to date precipitation 12.26 10.05  
Sea Level Pressure  
Sea Level Pressure 29.95 in    
Wind  
Wind Speed 3 mph ()    
Max Wind Speed 20 mph    
Max Gust Speed 26 mph    
Visibility 9.8 miles    
Events      
T = Trace of Precipitation, MM = Missing Value Source: Averaged Metar Reports

Daily Weather History Graph

Daily Weather History Graph

Search for Another Location

Airport or City:

Astronomy

Oct. 16, 2019 Rise Set
Actual Time 7:15 AM PDT 6:19 PM PDT
Civil Twilight 6:47 AM PDT 6:47 PM PDT
Nautical Twilight 6:15 AM PDT 7:19 PM PDT
Astronomical Twilight 5:43 AM PDT 7:51 PM PDT
Moon 8:14 PM PDT (10/16) 9:52 AM PDT (10/16)
Length of Visible Light 12h 00m
Length of Day
11h 04m
Waning Gibbous, 92% of the Moon is Illuminated
Oct 16
Waning Gibbous
Oct 21
Last Quarter
Oct 27
New
Nov 4
First Quarter
Nov 12
Full

Hourly Weather History & Observations

Time (PDT) Temp. Windchill Dew Point Humidity Pressure Visibility Wind Dir Wind Speed Gust Speed Precip Events Conditions
12:55 AM 32.0 °F - 19.9 °F 61% 30.08 in 10.0 mi Calm Calm - N/A   Clear
1:55 AM 30.9 °F - 21.9 °F 69% 30.06 in 10.0 mi Calm Calm - N/A   Clear
2:55 AM 27.0 °F - 19.9 °F 75% 30.06 in 10.0 mi Calm Calm - N/A   Clear
3:55 AM 25.0 °F - 19.9 °F 81% 30.05 in 10.0 mi Calm Calm - N/A   Clear
4:55 AM 28.0 °F 24.2 °F 19.9 °F 72% 30.05 in 10.0 mi NW 3.5 mph - N/A   Clear
5:55 AM 26.1 °F - 19.0 °F 75% 30.06 in 10.0 mi Calm Calm - N/A   Clear
6:55 AM 25.0 °F 20.7 °F 19.0 °F 78% 30.06 in 10.0 mi NNW 3.5 mph - N/A   Clear
7:55 AM 28.0 °F - 19.9 °F 72% 30.06 in 7.0 mi Calm Calm - N/A   Clear
8:55 AM 41.0 °F - 24.1 °F 51% 30.05 in 8.0 mi Calm Calm - N/A   Clear
9:55 AM 52.0 °F - 21.9 °F 31% 30.03 in 10.0 mi Calm Calm - N/A   Clear
10:55 AM 59.0 °F - 24.1 °F 26% 30.01 in 10.0 mi West 6.9 mph - N/A   Clear
11:55 AM 64.0 °F - 24.1 °F 22% 29.99 in 10.0 mi South 12.7 mph - N/A   Clear
12:55 PM 64.0 °F - 24.1 °F 22% 29.97 in 10.0 mi WSW 4.6 mph - N/A   Clear
1:55 PM 66.9 °F - 24.1 °F 20% 29.92 in 10.0 mi South 9.2 mph 16.1 mph N/A   Clear
2:55 PM 69.1 °F - 24.1 °F 18% 29.88 in 10.0 mi West 15.0 mph 19.6 mph N/A   Clear
3:55 PM 70.0 °F - 23.0 °F 17% 29.86 in 10.0 mi SW 8.1 mph 20.7 mph N/A   Clear
5:55 PM 63.0 °F - 23.0 °F 22% 29.83 in 10.0 mi WSW 11.5 mph - N/A   Clear
6:55 PM 57.0 °F - 27.0 °F 32% 29.85 in 10.0 mi WSW 8.1 mph - N/A   Clear
7:55 PM 53.1 °F - 25.0 °F 34% 29.86 in 10.0 mi SSE 5.8 mph - N/A   Clear
8:55 PM 52.0 °F - 25.0 °F 35% 29.82 in 10.0 mi WNW 10.4 mph - N/A   Clear
9:55 PM 52.0 °F - 25.0 °F 35% 29.78 in 10.0 mi West 8.1 mph - N/A   Clear
10:55 PM 48.0 °F - 26.1 °F 42% 29.78 in 10.0 mi WSW 8.1 mph - N/A   Clear
11:55 PM 48.0 °F - 28.0 °F 46% 29.77 in 10.0 mi West 12.7 mph - N/A   Clear